TimeCDT,TemperatureF,Dew PointF,Humidity,Sea Level PressureIn,VisibilityMPH,Wind Direction,Wind SpeedMPH,Gust SpeedMPH,PrecipitationIn,Events,Conditions,WindDirDegrees,DateUTC
12:53 AM,66.0,64.0,93,30.07,10.0,NNW,4.6,-,N/A,,Clear,330,2013-08-18 05:53:00
1:53 AM,64.0,63.0,96,30.07,8.0,NW,4.6,-,N/A,,Clear,320,2013-08-18 06:53:00
2:53 AM,64.0,63.0,96,30.06,7.0,NW,3.5,-,N/A,,Clear,320,2013-08-18 07:53:00
3:53 AM,64.0,62.1,93,30.06,8.0,NNE,3.5,-,N/A,,Clear,30,2013-08-18 08:53:00
4:53 AM,62.1,62.1,100,30.06,5.0,North,3.5,-,N/A,,Clear,350,2013-08-18 09:53:00
5:53 AM,62.1,62.1,100,30.06,6.0,NNW,3.5,-,N/A,,Clear,330,2013-08-18 10:53:00
6:53 AM,62.1,61.0,96,30.09,4.0,Calm,Calm,-,N/A,,Clear,0,2013-08-18 11:53:00
7:53 AM,64.0,63.0,96,30.10,5.0,Calm,Calm,-,N/A,,Clear,0,2013-08-18 12:53:00
8:53 AM,68.0,64.0,87,30.12,6.0,Calm,Calm,-,N/A,,Clear,0,2013-08-18 13:53:00
9:53 AM,73.9,66.0,76,30.11,9.0,South,6.9,-,N/A,,Clear,190,2013-08-18 14:53:00
10:53 AM,78.1,66.0,66,30.12,10.0,Variable,4.6,-,N/A,,Clear,0,2013-08-18 15:53:00
11:53 AM,79.0,63.0,58,30.11,10.0,North,-9999.0,-,N/A,,Mostly Cloudy,0,2013-08-18 16:53:00
12:53 PM,82.0,63.0,52,30.09,10.0,Variable,4.6,-,N/A,,Scattered Clouds,0,2013-08-18 17:53:00
1:53 PM,82.0,63.0,52,30.07,10.0,East,5.8,-,N/A,,Scattered Clouds,90,2013-08-18 18:53:00
2:53 PM,84.9,62.1,46,30.05,10.0,East,9.2,-,N/A,,Scattered Clouds,90,2013-08-18 19:53:00
3:53 PM,84.9,63.0,48,30.04,10.0,East,8.1,-,N/A,,Scattered Clouds,100,2013-08-18 20:53:00
4:53 PM,84.0,61.0,46,30.03,10.0,SE,6.9,-,N/A,,Partly Cloudy,130,2013-08-18 21:53:00
5:53 PM,84.0,62.1,47,30.02,10.0,ESE,8.1,-,N/A,,Partly Cloudy,110,2013-08-18 22:53:00
6:53 PM,82.0,63.0,52,30.01,10.0,ESE,8.1,-,N/A,,Partly Cloudy,110,2013-08-18 23:53:00
7:53 PM,78.1,64.9,64,30.01,10.0,ESE,4.6,-,N/A,,Clear,110,2013-08-19 00:53:00
8:53 PM,77.0,64.0,64,30.03,10.0,ESE,4.6,-,N/A,,Clear,120,2013-08-19 01:53:00
9:53 PM,75.0,64.9,71,30.04,10.0,ESE,3.5,-,N/A,,Clear,120,2013-08-19 02:53:00
10:53 PM,73.9,64.0,71,30.05,10.0,SE,4.6,-,N/A,,Clear,130,2013-08-19 03:53:00
11:53 PM,72.0,64.9,78,30.05,10.0,East,4.6,-,N/A,,Clear,80,2013-08-19 04:53:00